Date,TemperatureHighF,TemperatureAvgF,TemperatureLowF,DewpointHighF,DewpointAvgF,DewpointLowF,HumidityHigh,HumidityAvg,HumidityLow,PressureMaxIn,PressureMinIn,WindSpeedMaxMPH,WindSpeedAvgMPH,GustSpeedMaxMPH,PrecipitationSumIn
2013-12-1,58,48,42,46,40,34,89,73,59,30.38,30.06,4,0,5,0.00
2013-12-2,64,52,45,45,43,41,93,74,44,30.06,29.86,7,0,7,0.00
2013-12-3,63,55,48,56,50,44,94,84,74,30.00,29.91,10,0,10,0.66
2013-12-4,70,62,56,64,59,55,98,91,74,30.11,29.97,8,0,8,0.20
2013-12-5,67,64,61,65,62,59,96,93,84,30.16,30.08,11,1,13,0.05
2013-12-6,78,69,62,66,63,59,95,80,62,30.16,30.05,20,3,20,0.01
2013-12-7,68,60,45,66,58,44,97,92,81,30.39,30.08,12,1,13,0.30
2013-12-8,45,42,40,44,41,39,98,96,95,30.42,30.30,8,0,10,0.42
2013-12-9,55,48,40,54,47,39,99,97,96,30.30,30.07,5,0,6,0.28
2013-12-10,66,56,38,65,51,27,99,85,59,30.37,29.98,14,2,17,0.09
2013-12-11,57,42,32,37,31,26,88,68,37,30.50,30.35,8,0,8,0.00
2013-12-12,54,41,31,34,28,21,90,65,29,30.47,30.33,7,0,8,0.00
2013-12-13,60,41,27,37,28,20,93,65,24,30.45,30.26,9,0,9,0.00
2013-12-14,64,54,45,62,49,36,97,86,70,30.26,29.85,12,1,17,1.07
2013-12-15,54,49,37,52,43,32,96,80,59,30.20,29.83,12,1,16,0.05
2013-12-16,62,44,30,37,32,27,96,67,31,30.28,30.19,13,1,13,0.00
2013-12-17,64,50,38,36,32,30,73,53,29,30.27,30.10,16,2,16,0.00
2013-12-18,56,45,34,34,28,19,82,55,26,30.37,30.13,7,0,10,0.00
2013-12-19,64,45,30,44,32,22,92,66,22,30.42,30.28,7,1,8,0.00
2013-12-20,69,54,41,56,48,39,98,81,54,30.31,30.18,12,1,12,0.00
2013-12-21,52,51,50,49,48,47,90,89,89,30.20,30.17,0,0,0,0.00
2013-12-23,65,58,52,64,56,48,97,93,87,30.19,30.09,11,0,11,0.49
2013-12-24,54,45,35,48,34,23,93,67,30,30.44,30.18,10,0,10,0.00
2013-12-25,46,37,27,25,21,17,68,53,36,30.57,30.41,10,0,10,0.00
2013-12-26,52,43,36,39,33,21,91,69,45,30.41,30.30,6,0,6,0.00
2013-12-27,54,42,35,34,30,24,92,65,37,30.50,30.37,8,0,8,0.00
2013-12-28,54,43,31,42,33,27,94,72,34,30.47,30.11,7,0,7,0.13
2013-12-29,63,52,44,62,49,42,98,89,68,30.11,29.83,18,2,18,1.56
2013-12-30,56,48,39,45,42,37,97,81,61,30.21,30.02,8,0,8,0.00
2013-12-31,56,48,39,44,38,30,85,70,38,30.42,30.20,7,0,7,0.00